Location: Cluj-Napoca
(46.7712°N, 23.6236°E)
Time: 16:15:02
(UTC+02:00)

First-Move - Pass Details

Date: 03 December 2021
Orbit: 574 x 665 km, 97.6° (Epoch: 24 January)

Event Time Altitude Azimuth Distance (km) Brightness Sun altitude
Rises 05:29:26 0° 7° (N) 2,996 ? -23.6°
Reaches altitude 10° 05:31:42 10° 2° (N) 2,088 ? -23.2°
Enters shadow 05:32:58 18° 357° (N) 1,608 ? -23.0°
